This is the latest recevied weather packets stored in our database for station/object DO1SN-13. If no packets are shown the sender has not sent any weather packets the latest 10 day(s).
| Time | Temp. | Humidity | Pressure | Rain* | Wind** | Luminosity | Snow |
|---|---|---|---|---|---|---|---|
| 1787366623 | 17.22° C | - | 1017 hPa | 0 mm | - | - | - |
| 1787366256 | 17.22° C | - | 1017.3 hPa | 0 mm | - | - | - |
| 1787365892 | 17.22° C | - | 1017 hPa | 0 mm | - | - | - |
| 1787365528 | 17.22° C | - | 1017.1 hPa | 0 mm | - | - | - |
| 1787365164 | 17.22° C | - | 1017.2 hPa | 0 mm | - | - | - |
| 1787364799 | 17.22° C | - | 1017.2 hPa | 0 mm | - | - | - |
| 1787364435 | 17.22° C | - | 1017 hPa | 0 mm | - | - | - |
| 1787364071 | 17.22° C | - | 1016.9 hPa | 0 mm | - | - | - |
| 1787363708 | 17.22° C | - | 1016.9 hPa | 0 mm | - | - | - |
| 1787363343 | 16.67° C | - | 1016.8 hPa | 0 mm | - | - | - |
| 1787362979 | 17.22° C | - | 1016.8 hPa | 0 mm | - | - | - |
| 1787362615 | 17.78° C | - | 1016.8 hPa | 0 mm | - | - | - |
| 1787362250 | 17.78° C | - | 1016.8 hPa | 0 mm | - | - | - |
| 1787361886 | 18.33° C | - | 1016.6 hPa | 0 mm | - | - | - |
| 1787361522 | 17.78° C | - | 1016.6 hPa | 0 mm | - | - | - |
| 1787361159 | 17.78° C | - | 1016.7 hPa | 0 mm | - | - | - |
| 1787360794 | 17.78° C | - | 1016.7 hPa | 0 mm | - | - | - |
| 1787360430 | 17.78° C | - | 1016.8 hPa | 0 mm | - | - | - |
| 1787360066 | 16.67° C | - | 1016.8 hPa | 0 mm | - | - | - |
| 1787359701 | 17.22° C | - | 1016.6 hPa | 0 mm | - | - | - |
| 1787359337 | 17.22° C | - | 1016.5 hPa | 0 mm | - | - | - |
| 1787358973 | 17.78° C | - | 1016.6 hPa | 0 mm | - | - | - |
| 1787358609 | 17.78° C | - | 1016.5 hPa | 0 mm | - | - | - |
| 1787358245 | 17.78° C | - | 1016.6 hPa | 0 mm | - | - | - |
| 1787357881 | 17.22° C | - | 1016.3 hPa | 0 mm | - | - | - |
* Rain latest hour (hover to see other rain measurements)
** Current wind speed in m/s (hover to see current wind gust speed)